Location: Corcelles
(46.1547°N, 4.7234°E)
Time: 04:43:27
(UTC+00:00)

Meteor 1-4 Rocket - Pass Details

Date: 14 July 2020
Orbit: 449 x 502 km, 81.2° (Epoch: 06 August)

Event Time Altitude Azimuth Distance (km) Brightness Sun altitude
Rises 00:15:26 0° 351° (N) 2,589 7.6 -21.9°
Reaches altitude 10° 00:17:35 10° 355° (N) 1,693 6.4 -21.9°
Maximum altitude 00:21:17 65° 77° (ENE) 539 2.7 -21.8°
Enters shadow 00:21:22 65° 88° (E) 540 2.7 -21.8°
